Regional Weather Roundup
Issued by NWS Sterling, VA

Home | Current Version | Previous Version | Graphics & Text | Print | Product List | Glossary On
Versions: 1 2 3 4 5 6 7 8 9 10 11 12 13 14 15 16 17 18 19 20 21 22 23 24 25 26 27 28 29 30 31 32 33 34 35 36 37 38 39 40 41 42 43 44 45 46 47 48 49 50
028
ASUS41 KLWX 222311
RWRLWX

REGIONAL WEATHER ROUNDUP
NATIONAL WEATHER SERVICE BALTIMORE MD/WASHINGTON DC
700 PM EDT TUE AUG 22 2017

Note: "FAIR" indicates few or no clouds below 12,000 feet
with no significant weather and/or obstructions to visibility.
 TC=TEMPERATURE CELSIUS

 * =Non NWS site. Station does not report precipitation (e.g. rain,
    snow, etc.), thunder, or fog.

DCZ001-MDZ009-015-VAZ040>042-051-053>054-230000-
WASHINGTON METRO

CITY           SKY/WX    TMP DP  RH WIND       PRES   REMARKS
WASHINGTON NAT PTCLDY    89  75  63 S15       29.84S HX  99
DULLES         PTCLDY    87  71  58 S13       29.84S HX  93
ANDREWS AFB    CLEAR     87  71  58 S15       29.85S HX  93
FT BELVOIR     CLEAR     88  72  59 S7        29.84F HX  94
QUANTICO       CLEAR     89  75  63 SW13      29.85F HX  99
COLLEGE PARK*  CLEAR     90  70  51 S7        29.83S HX  95
LEESBURG*      CLEAR     90  73  58 S13       29.85R HX  98
MANASSAS*      CLEAR     87  73  62 S12       29.84F HX  94
GAITHERSBURG*  CLEAR     88  70  55 S12       29.86S HX  93

$$

MDZ006>007-011-014-230000-
BALTIMORE METRO

CITY           SKY/WX    TMP DP  RH WIND       PRES   REMARKS
BWI AIRPORT    PTCLDY    88  70  55 S10G17    29.82S HX  93
MD SCIENCE CTR   N/A     91  69  48 MISG      29.81R HX  96
MARTIN STATE   PTCLDY    88  79  74 S15G22    29.84S HX 102
ANNAPOLIS      CLEAR     87  80  79 S9        29.83F HX 103
FORT MEADE*    CLEAR     82  72  69 S7        29.85S

$$

MDZ012-015-019>023-230000-
MARYLAND EASTERN SHORE

CITY           SKY/WX    TMP DP  RH WIND       PRES   REMARKS
OCEAN CITY     PTCLDY    80  77  90 S12G23    29.91F
SALISBURY      CLEAR     84  77  79 S12       29.90S HX  94
BAY BRIDGE AP* CLEAR     88  77  70 S13G18    29.84F HX 100
CAMBRIDGE*     CLEAR     86  75  70 S9        29.87S HX  95
EASTON*        PTCLDY    88  73  62 S14G21    29.90S HX  96

$$

MDZ017>025-230000-
SOUTHERN MARYLAND

CITY           SKY/WX    TMP DP  RH WIND       PRES   REMARKS
PATUXENT RIVER PTCLDY    86  74  67 S10       29.87S HX  94
ST INIGOES     CLEAR     86  74  67 S9        29.87S HX  94
LEONARDTOWN*   CLEAR     86  72  62 SW6       29.90S HX  92

$$

MDZ003>005-230000-
NORTH CENTRAL MARYLAND

CITY           SKY/WX    TMP DP  RH WIND       PRES   REMARKS
FREDERICK*     CLEAR     86  70  58 S7        29.85S HX  90
HAGERSTOWN APT MOCLDY    89  71  55 S10       29.83R HX  95
WESTMINSTER*   CLEAR     88  73  62 S9        29.85S HX  96

$$

MDZ501>502-230000-
WESTERN MARYLAND

CITY           SKY/WX    TMP DP  RH WIND       PRES   REMARKS
OAKLAND*       CLOUDY    64  64 100 W5        29.98F
CUMBERLAND*    CLOUDY    81  68  65 N17       29.92R

$$

VAZ025>031-230000-
SHENANDOAH VALLEY

CITY           SKY/WX    TMP DP  RH WIND       PRES   REMARKS
WINCHESTER*    MOSUNNY   86  64  48 SW7       29.84R
FRONT ROYAL*   SUNNY     88  68  51 SW7       29.84S HX  91
LURAY*         SUNNY     88  66  48 S10       29.86F HX  90
NEW MARKET*    SUNNY     88  65  46 SW5       29.85F
STAUNTON*      SUNNY     87  67  51 SW10      29.93R HX  90
WAYNESBORO*    SUNNY     88  67  51 S6        29.94S HX  91

$$

WVZ021-048>050-054>055-230000-
EASTERN WEST VIRGINIA PANHANDLE

CITY           SKY/WX    TMP DP  RH WIND       PRES   REMARKS
MARTINSBURG    CLOUDY    86  72  62 S7        29.82R HX  92
PETERSBURG*    CLOUDY    84  72  66 W5        29.87R HX  90

$$

VAZ036>039-050-230000-
CENTRAL FOOTHILLS

CITY           SKY/WX    TMP DP  RH WIND       PRES   REMARKS
CHARLOTTESVILL MOSUNNY   91  67  44 SW10      29.87F HX  94
CULPEPER*      CLEAR     91  70  50 S7        29.86S HX  97
ORANGE*        CLEAR     88  68  51 S9        29.86F HX  91
GORDONSVILLE*  MOSUNNY   90  70  52 S10       29.86S HX  95
WARRENTON*     CLEAR     89  70  53 S7        29.85S HX  93

$$

VAZ055>057-230000-
NORTH AND CENTRAL PIEDMONT

CITY           SKY/WX    TMP DP  RH WIND       PRES   REMARKS
FREDERICKSBRG* CLEAR     89  73  58 S7        29.86S HX  96
STAFFORD*      CLEAR     87  70  57 S7G17     29.90S HX  92

$$

NCZ024-NYZ072-PAZ021-071-VAZ022-071-230000-
OTHER REGIONAL OBSERVATIONS

CITY           SKY/WX    TMP DP  RH WIND       PRES   REMARKS
NEW YORK CITY  CLEAR     86  70  58 VRB7      29.81F HX  90
PHILADELPHIA   PTCLDY    88  71  57 S13G22    29.83R HX  94
PITTSBURGH     CLOUDY    75  70  84 SW10      29.87R
ROANOKE        MOSUNNY   90  65  43 SW10      29.95F HX  92
RICHMOND       PTCLDY    87  72  60 S12       29.90F HX  93
RALEIGH        MOSUNNY   90  70  51 S10       29.94S HX  95

$$

ANZ530>537-230000-
MARINE OBSERVATIONS

STATION/POSITION TIME  TEMP    WIND        PRES
                       AIR SEA DIR/SP/G
                 (UTC) (F)     (DEG/KT/KT) (MB)
THOMAS PT LIGHT  2300   84 81  180/ 20/ 21   N/A
BALT KEY BRIDGE  2242   88     190/ 12/ 16 1009.6F
COVE POINT       2242   87     200/ 16/ 19 1012.0F
LEWISETTA        2242   87 86  230/ 10/ 12 1011.8S
SOLOMONS ISLAND  2242   87 82  190/ 13/ 17   N/A
PINEY POINT      2242          220/ 12/ 14   N/A

$$





USA.gov is the U.S. government's official web portal to all federal, state and local government web resources and services.